www.pogodaiklimat.ru
ПОГОДА в Чуприи
Время
(UTC), дата
22 8.12
23 8.12
00 9.12
01 9.12
02 9.12
03 9.12
04 9.12
05 9.12
06 9.12
07 9.12
08 9.12
09 9.12
10 9.12
11 9.12
12 9.12
13 9.12
14 9.12
15 9.12
16 9.12
17 9.12
18 9.12
19 9.12
20 9.12
21 9.12
22 9.12
23 9.12
00 10.12
01 10.12
02 10.12
03 10.12
04 10.12
05 10.12
06 10.12
07 10.12
08 10.12
09 10.12
10 10.12
11 10.12
12 10.12
13 10.12
14 10.12
15 10.12
16 10.12
17 10.12
18 10.12
19 10.12
20 10.12
21 10.12
22 10.12
23 10.12
00 11.12
01 11.12
02 11.12
03 11.12
04 11.12
05 11.12
06 11.12
07 11.12
08 11.12
09 11.12
10 11.12
11 11.12
12 11.12
13 11.12
14 11.12
15 11.12
16 11.12
17 11.12
18 11.12
19 11.12
20 11.12
21 11.12
22 11.12
23 11.12
00 12.12
01 12.12
02 12.12
03 12.12
04 12.12
05 12.12
06 12.12
07 12.12
08 12.12
09 12.12
10 12.12
11 12.12
12 12.12
13 12.12
14 12.12
15 12.12
16 12.12
17 12.12
18 12.12
19 12.12
20 12.12
21 12.12
22 12.12
23 12.12
00 13.12
01 13.12
02 13.12
03 13.12
04 13.12
05 13.12
06 13.12
07 13.12
08 13.12
09 13.12
11 13.12
12 13.12
13 13.12
14 13.12
15 13.12
16 13.12
17 13.12
18 13.12
19 13.12
20 13.12
21 13.12
22 13.12
23 13.12
00 14.12
01 14.12
02 14.12
03 14.12
04 14.12
05 14.12
06 14.12
07 14.12
08 14.12
09 14.12
10 14.12
11 14.12
12 14.12
13 14.12
14 14.12
15 14.12
16 14.12
17 14.12
18 14.12
19 14.12
20 14.12
21 14.12
22 14.12
23 14.12
00 15.12
01 15.12
02 15.12
03 15.12
04 15.12
05 15.12
06 15.12
07 15.12
08 15.12
09 15.12
10 15.12
11 15.12
12 15.12
13 15.12
14 15.12
15 15.12
16 15.12
17 15.12
18 15.12
19 15.12
20 15.12
Ветер
(напр.,м/с)
Видим. Явления Облачность Т
(С)
Тd
(С)
f
(%)
Тe
(С)
Тes
(С)
Комфортность P
(гПа)
Po
(гПа)
Тmin
(С)
Tmax
(С)
R
(мм)
R24
(мм)
S
(см)
В 1 6000 м дымка ясно +1.9 +1.8 99 -0 -0 1018.9 1003.3
В 1 10 км ясно +0.9 +0.6 98 -1 -1 1018.4 1002.8
Ю 1 10 км ясно +0.3 +0.1 99 -2 -2 1017.7 1002.0
штиль 0 500 м туман ?/? -0.4 -0.4 100 -2 -2 1017.6 1001.8
штиль 0 500 м туман ?/? -0.6 -0.6 100 -2 -2 1017.3 1001.6
ЮВ 1 700 м туман ясно -0.4 -0.4 100 -3 -3 1016.5 1000.8
В 1 900 м туман ясно -0.5 -0.6 99 -3 -3 1016.5 1000.8
В 1 10 км в посл. час туман ясно +0.9 +0.6 98 -1 -1 1016.4 1000.8
В 1 10 км ясно +0.3 +0.1 99 -2 -2 1016.6 1000.9 -1.0
штиль 0 10 км ясно +0.4 +0.1 98 -1 -1 1016.7 1001.0
В 1 10 км 1/0
[Ac trans]
+4.6 +4.0 96 +3 +5 1016.4 1001.0
ЮВ 2 10 км 5/0
[Ac trans]
+5.8 +4.9 94 +3 +5 1016.1 1000.8
В 2 10 км 6/0
[Ac trans]
+6.9 +5.6 91 +5 +7 1015.2 1000.0
Ю 2 10 км 4/0
[Ac trans]
+8.8 +6.8 87 +7 +9 1013.6 998.5
Ю 2 10 км ясно +10.9 +6.4 74 +10 +12 1012.5 997.6
Ю 2 15 км 4/0
[Ac trans]
+11.4 +5.8 68 +10 +12 1011.8 996.9
В 1 15 км 5/0
[Ac trans]
+11.5 +5.8 68 +12 +12 1011.2 996.3
В 1 15 км 5/0
[Ac trans]
+9.0 +7.0 87 +8 +8 1010.9 995.9
В 1 15 км 6/0
[Ac trans]
+7.4 +6.2 92 +6 +6 1010.7 995.6
В 1 15 км 1/0
[Ac trans]
+5.5 +4.5 93 +4 +4 1010.8 995.6
В 1 15 км 1/0
[Ac trans]
+4.2 +4.0 99 +3 +3 1010.8 995.5 +11.7
В 1 10 км ясно +3.2 +3.2 100 +1 +1 1010.8 995.5
ЮВ 2 8000 м дымка {туман} 8/0
[Ac trans Ci fib]
+5.9 +5.8 99 +3 +3 1010.7 995.6
В 2 6000 м дымка {туман} 8/4 1000 м
[Sc Ac trans]
+4.7 +4.7 100 +2 +2 1010.6 995.3
ЮВ 2 6000 м дымка {туман} 5/1 1000 м
[Sc Ac trans]
+4.2 +4.2 100 +1 +1 1010.7 995.3
В 2 4000 м дымка {туман} 5/1 1000 м
[Sc Ac trans]
+4.6 +4.6 100 +2 +2 1010.2 994.9
В 2 4000 м дымка {туман} 3/0
[Ac trans]
+5.0 +4.7 98 +2 +2 1010.2 994.9
ЮВ 2 6000 м дымка {туман} 4/0
[Ac trans]
+5.3 +4.7 96 +3 +3 1010.2 994.9
Ю 2 6000 м дымка {туман} 5/0
[Ac trans]
+5.9 +5.8 99 +3 +3 1010.0 994.7
В 2 10 км 5/0
[Ac trans]
+6.2 +5.3 94 +4 +4 1010.0 994.7
Ю 2 10 км 5/0
[Ac trans]
+6.4 +5.8 96 +4 +4 994.8
ЮВ 1 10 км 8/0
[Ac trans Ci fib]
+6.6 +5.3 91 +5 +5 1010.4 995.2
В 1 10 км 9/5 1000 м
[Sc Ac trans]
+6.0 +5.6 97 +5 +5 1011.5 996.3 +3.7
штиль 0 10 км 9/9 1000 м
[Sc]
+5.9 +4.9 93 +5 +5 1012.0 996.8
В 1 10 км 10/10 1000 м
[Sc]
+7.4 +5.3 87 +6 +6 1012.1 996.9
В 1 10 км 10/10 1000 м
[Sc]
+8.4 +5.3 81 +8 +8 1012.8 997.7
штиль 0 10 км 9/6 1000 м
[Sc Ac trans]
+9.5 +4.9 73 +9 +10 1013.0 998.0
З 2 10 км 9/6 1000 м
[Sc Ac trans]
+9.8 +6.8 82 +8 +9 1013.3 998.2
З 2 10 км 10/10 1000 м
[Sc]
+8.7 +7.4 92 +7 +7 1013.9 998.8
СЗ 2 10 км 10/10 1000 м
[Sc]
+7.6 +6.4 92 +5 +5 1014.5 999.3
СЗ 1 10 км 10/10 1000 м
[Sc]
+7.3 +6.6 95 +6 +6 1015.5 1000.2
СЗ 2 10 км слаб. дождь 10/10 600 м
[Frnb]
+6.9 +6.4 97 +4 +4 1015.9 1000.6
СЗ 3 10 км слаб. дождь 10/10 600 м
[Frnb]
+6.5 +6.2 98 +3 +3 1016.7 1001.4
З 1 10 км слаб. дождь 10/10 600 м
[Frnb]
+6.2 +5.8 97 +5 +5 1017.5 1002.2
СЗ 2 10 км слаб. дождь 10/10 600 м
[Frnb]
+6.1 +5.8 98 +3 +3 1018.1 1002.8 +10.0 1
СЗ 2 10 км слаб. дождь 10/0
[As op]
+6.2 +5.8 97 +4 +4 1018.4 1003.0
СЗ 2 10 км слаб. дождь 10/0
[As op]
+5.8 +5.3 97 +3 +3 1018.8 1003.4
СЗ 1 10 км слаб. дождь 10/0
[As op]
+5.7 +5.6 99 +4 +4 1019.3 1004.0
СЗ 2 10 км слаб. дождь 10/0
[As op]
+5.7 +5.6 99 +3 +3 1019.5 1004.1
СЗ 2 10 км слаб. дождь 10/0
[As op]
+5.8 +5.6 99 +3 +3 1019.5 1004.1
З 2 10 км слаб. дождь 10/0
[As op]
+5.9 +5.8 99 +3 +3 1019.5 1004.1 3
З 2 10 км слаб. дождь 10/0
[As op]
+5.7 +5.6 99 +3 +3 1019.5 1004.1
З 2 10 км слаб. дождь 10/0
[As op]
+5.5 +5.3 99 +3 +3 1019.6 1004.2
З 2 10 км слаб. дождь 10/0
[As op]
+4.6 +4.5 99 +2 +2 1019.7 1004.2
З 2 10 км в посл. час дождь 10/10 600 м
[Sc]
+3.7 +3.5 99 +1 +1 1019.7 1004.2
СЗ 3 10 км слаб. дождь 10/0
[As op]
+3.5 +3.3 99 -1 -1 1020.3 1004.8
СЗ 2 10 км слаб. морось {дождь} 10/0 600 м
[As op]
+3.4 +3.3 99 0 0 1020.3 1004.8 +3.4 4 4.5
СЗ 2 10 км слаб. морось {дождь} 10/10 600 м
[Frnb]
+3.2 +3.0 99 -0 -0 1020.8 1005.3
СЗ 2 10 км слаб. дождь 10/10 600 м
[Frnb]
+2.8 +2.3 97 -1 -1 1020.9 1005.3
СЗ 2 10 км слаб. дождь 10/10 600 м
[Frnb]
+2.6 +2.0 96 -1 -1 1020.9 1005.3
СЗ 2 10 км {дождь} 10/10 1000 м
[Sc]
+2.6 +2.0 96 -1 -1 1020.5 1004.9
СЗ 2 10 км 10/10 1000 м
[Sc]
+2.8 +2.0 94 -1 -1 1019.2 1003.7
СЗ 2 10 км {дождь} 10/10 1000 м
[Sc]
+3.0 +1.8 92 -0 -0 1018.8 1003.3 0.7
СЗ 2 10 км 10/10 1000 м
[Sc]
+3.0 +1.5 90 -0 -0 1018.5 1003.0
СЗ 2 10 км 10/10 1000 м
[Sc]
+3.0 +1.5 90 -0 -0 1018.1 1002.6
СЗ 2 10 км 10/10 1000 м
[Sc]
+3.0 +1.8 92 -0 -0 1017.7 1002.2
З 1 10 км 10/10 1000 м
[Sc]
+3.0 +1.8 92 +1 +1 1017.6 1002.1
СЗ 1 10 км 10/10 1000 м
[Sc]
+2.9 +2.0 94 +1 +1 1016.9 1001.4
З 1 10 км {дождь} 10/10 1000 м
[Sc]
+2.9 +2.0 94 +1 +1 1016.8 1001.3 +3.4 0.7
СЗ 1 10 км 10/10 1000 м
[Sc]
+2.8 +2.0 94 +1 +1 1016.4 1000.9
штиль 0 10 км 10/10 1000 м
[Sc]
+2.9 +2.3 96 +2 +2 1015.8 1000.4
штиль 0 10 км 10/10 1000 м
[Sc]
+2.8 +2.3 97 +2 +2 1015.2 999.7
штиль 0 10 км 10/10 1000 м
[Sc]
+2.7 +2.3 97 +1 +1 1014.6 999.2
штиль 0 10 км 10/10 1000 м
[Sc]
+2.8 +2.3 97 +2 +2 1013.5 998.1
штиль 0 10 км 10/10 1000 м
[Sc]
+2.8 +2.3 97 +2 +2 1012.9 997.4
штиль 0 10 км 10/10 1000 м
[Sc]
+2.8 +2.3 97 +2 +2 1012.2 996.8
штиль 0 10 км 10/10 1000 м
[Sc]
+3.1 +2.5 96 +2 +2 1011.5 996.1
ЮВ 2 15 км 10/10 1000 м
[Sc]
+4.0 +3.0 93 +1 +1 1010.6 995.3
Ю 1 15 км 10/10 1000 м
[Sc]
+4.0 +2.5 90 +3 +3 1010.1 994.7
В 1 15 км 10/10 1000 м
[Sc]
+3.2 +2.3 94 +2 +2 1010.0 994.6
Ю 1 15 км 10/10 1000 м
[Sc]
+3.2 +2.5 95 +2 +2 1010.0 994.6 +2.8 0.7
ЮВ 2 15 км 9/9 1000 м
[Sc]
+4.4 +3.0 91 +2 +2 1009.9 994.6
ЮВ 2 15 км 9/9 1000 м
[Sc]
+4.8 +3.5 91 +2 +2 1009.6 994.4
Ю 2 15 км 9/9 1000 м
[Sc]
+5.6 +4.0 89 +3 +3 1009.2 994.0
Ю 2 20 км 8/8 1000 м
[Sc]
+7.5 +5.8 89 +5 +6 1008.4 993.3
ЮВ 3 20 км 9/9 1000 м
[Sc]
+7.8 +4.5 80 +5 +5 1008.1 997.0
ЮВ 2 20 км 9/9 1000 м
[Sc]
+8.4 +5.1 80 +7 +7 1007.3 992.2
ЮВ 2 20 км 9/9 1000 м
[Sc]
+9.2 +5.1 76 +8 +8 1006.8 991.8
В 2 20 км 8/8 1000 м
[Sc]
+7.2 +4.2 81 +5 +5 1006.4 991.3
ЮВ 2 20 км 9/9 1000 м
[Sc]
+6.5 +3.8 83 +4 +4 1006.4 991.3
ЮВ 2 20 км 9/9 1000 м
[Sc]
+6.1 +3.5 83 +4 +4 1006.5 991.3
В 2 20 км 9/9 1000 м
[Sc]
+6.8 +3.3 78 +5 +5 1006.3 991.2
ЮВ 1 20 км 8/5 1000 м
[Sc Ac trans]
+6.7 +3.5 80 +6 +6 1005.9 990.8 +9.4
В 1 20 км 9/8 1000 м
[Sc Ac trans]
+6.7 +3.5 80 +6 +6 1005.9 990.8
ЮВ 2 20 км 8/5 1000 м
[Sc Ac trans]
+6.6 +4.7 88 +4 +4 1005.5 990.4
Ю 2 20 км 8/5 1000 м
[Sc Ac trans]
+6.5 +4.7 88 +4 +4 1005.1 990.0
В 2 20 км 6/4 1000 м
[Sc Ac trans]
+6.6 +4.5 86 +4 +4 1004.1 989.0
В 3 20 км 8/5 1000 м
[Sc Ac trans]
+6.6 +4.7 88 +3 +3 1003.7 988.6
ЮВ 2 20 км 8/5 1000 м
[Sc Ac trans]
+6.7 +5.1 90 +4 +4 1003.2 988.1
ЮВ 3 20 км 5/5 1000 м
[Sc]
+6.3 +5.1 92 +3 +3 1002.9 987.9
ЮВ 3 20 км 5/4 1000 м
[Sc Ci fib]
+6.3 +5.1 92 +3 +3 1002.9 987.9
ЮВ 2 20 км 6/5 1000 м
[Sc Ci fib]
+6.0 +5.1 94 +3 +3 1002.4 987.3
ЮВ 3 20 км 9/9 1000 м
[Sc]
+6.7 +5.8 94 +3 +3 1001.7 986.7
В 2 20 км 9/9 1000 м
[Sc]
+7.0 +5.8 92 +5 +5 1001.5 986.5
В 1 15 км слаб. дождь 10/10 600 м
[Frnb]
+6.8 +5.6 92 +6 +6 1001.6 986.5 +6.0 0.1 0.1
В 2 10 км слаб. дождь 10/10 600 м
[Frnb]
+6.8 +5.6 92 +4 +4 1001.3 986.3
ЮВ 2 15 км в посл. час дождь 8/5 1000 м
[Sc Ac trans]
+7.5 +6.6 94 +5 +6 1000.8 985.9
В 3 20 км {дождь} 5/1 1000 м
[Sc Ac trans]
+9.7 +5.8 77 +8 +9 1000.7 985.9
В 4 20 км 3/0
[Ac trans Ci fib]
+12.4 +5.8 64 +11 +13 998.9 984.3
В 4 20 км {дождь} 3/0
[Ac trans Ci fib]
+12.0 +3.3 55 +10 +12 997.9 983.2 0.3
В 4 20 км 4/1 600 м
[Cu med, cong Ac trans Ci fib]
+10.5 +2.5 58 +8 +9 997.0 982.3
В 4 20 км 3/1 600 м
[Cu med, cong Ac trans]
+9.8 +4.0 67 +7 +7 996.8 982.1
В 6 20 км 3/1 600 м
[Cu med, cong Ac trans]
+7.9 +4.0 76 +4 +4 996.6 981.7
В 5 20 км 1/0
[Ac trans]
+8.0 +4.5 79 +4 +4 997.2 982.3
В 6 20 км ясно +7.5 +4.2 80 +3 +3 996.4 981.5
В 7 20 км ясно +7.5 +4.2 80 +3 +3 996.4 981.5 +12.6 0.3
В 4 20 км 4/0
[Ac trans]
+7.2 +4.2 81 +4 +4 995.5 980.6
В 4 20 км 3/0
[Ac trans]
+7.1 +4.0 81 +4 +4 994.8 979.9
В 4 20 км 5/0
[Ac trans]
+7.0 +4.0 81 +3 +3 994.1 979.2
В 5
{10}
20 км 8/8 1000 м
[Sc]
+7.8 +3.5 74 +4 +4 993.4 978.6
В 4
{10}
20 км 8/8 1000 м
[Sc]
+8.0 +3.5 73 +5 +5 992.9 978.0
В 5
{10}
20 км 8/8 1000 м
[Sc]
+8.6 +3.0 68 +5 +5 992.3 977.5
В 4 20 км 6/6 1000 м
[Sc]
+7.8 +3.3 73 +5 +5 992.7 977.9
В 4 20 км 6/6 1000 м
[Sc]
+8.0 +3.5 73 +5 +5 992.3 977.5
В 4 20 км 6/6 1000 м
[Sc]
+7.5 +3.8 77 +4 +4 992.5 977.6
В 4 20 км 6/6 1000 м
[Sc]
+7.8 +3.5 74 +5 +5 993.7 978.8
В 4 20 км 9/9 1000 м
[Sc]
+8.2 +3.5 72 +5 +5 994.5 997.6
В 2 20 км 9/9 1000 м
[Sc]
+7.4 +4.9 84 +5 +5 996.1 981.2 +6.8 0.3
Ю 2 20 км 10/10 1000 м
[Sc]
+7.8 +4.0 77 +6 +6 997.2 982.3
В 2 20 км 9/9 1000 м
[Sc]
+8.6 +4.0 73 +7 +7 997.7 982.8
ЮВ 2 20 км 9/9 1000 м
[Sc]
+10.4 +4.2 65 +9 +9 998.8 984.0
ЮВ 2 20 км 10/10 1000 м
[Sc]
+10.4 +3.8 64 +9 +9 999.6 984.8
В 2 20 км 10/10 1000 м
[Sc]
+10.6 +4.0 64 +9 +9 1000.4 985.6
Ю 1 20 км 10/10 1000 м
[Sc]
+11.4 +4.5 63 +11 +11 1001.2 986.4
штиль 0 20 км 10/10 1000 м
[Sc]
+11.0 +4.9 66 +11 +11 1002.6 987.7
СЗ 2 20 км 10/10 1000 м
[Sc]
+9.3 +5.1 75 +8 +8 1004.4 989.4
С 1 20 км 10/10 1000 м
[Sc]
+8.8 +5.3 79 +8 +8 1005.3 990.4
СЗ 1 20 км 10/10 1000 м
[Sc]
+8.4 +5.6 83 +8 +8 1006.6 991.6
СЗ 1 20 км 10/10 1000 м
[Sc]
+8.0 +5.3 83 +7 +7 1007.7 992.6
СЗ 1 20 км 10/10 1000 м
[Sc]
+7.2 +4.7 84 +6 +6 1009.5 994.4 +11.5
штиль 0 20 км 10/10 1000 м
[Sc]
+6.3 +4.7 89 +5 +5 1010.8 995.6
С 1 20 км 6/4 1000 м
[Sc Ac trans]
+4.3 +3.5 95 +3 +3 1012.1 996.8
З 1 20 км 3/0
[Ac trans]
+3.6 +3.0 96 +2 +2 1013.1 997.7
штиль 0 20 км 1/0
[Ac trans]
+2.0 +1.5 96 +1 +1 1014.1 998.6
В 1 15 км ясно +0.8 +0.8 100 -1 -1 1015.2 999.6
В 1 10 км ясно +0.3 +0.2 99 -2 -2 1016.0 1000.4
В 2 6000 м дымка {туман} ясно -0.3 -0.3 100 -4 -4 1016.6 1000.9
Ю 1 8000 м дымка {туман} ясно +1.6 +1.5 99 -0 -0 1017.7 1002.1
В 1 8000 м дымка {туман} ясно +3.4 +3.3 99 +2 +2 1017.7 1002.2
В 1 10 км ясно +4.1 +4.0 99 +2 +2 1017.9 1002.5
В 2 10 км ясно +3.7 +3.5 99 +1 +1 1018.4 1002.9
В 2 200 м туман ясно +3.9 +3.9 100 +1 +1 1018.8 1003.3 -0.6
В 2 100 м туман ?/? +3.9 +3.9 100 +1 +1 1019.0 1003.5
ЮВ 2 400 м туман местами ?/? +4.2 +4.0 99 +1 +1 1019.3 1003.9
ЮВ 2 1000 м в посл. час туман 10/10 600 м
[St]
+4.9 +4.7 99 +2 +2 1019.3 1003.9
Ю 2 6000 м дымка {туман} 5/0
[Ac trans Ci fib]
+8.0 +5.6 85 +6 +9 1018.4 1003.2
Ю 3 10 км 3/0
[Ci fib]
+11.3 +7.4 77 +10 +12 1018.0 1002.9
Ю 3 <100 м 3/0 1000 м
[Ci fib]
+12.9 +7.0 67 +12 +14 1017.3 1002.4
Ю 2 20 км 6/0
[Ac trans Ci fib]
+14.6 +7.2 61 +14 +15 1017.1 1002.3
Ю 2 20 км 6/0
[Ac trans Ci fib]
+14.0 +6.8 62 +14 +14 1017.5 1002.6
Ю 2 20 км 8/0
[Ac trans Ci fib]
+11.7 +6.6 71 +11 +11 1018.6 1003.6
В 1 20 км 3/0
[Ac trans]
+8.4 +5.1 80 +8 +8 1019.3 1004.1
В 1 20 км ясно +6.0 +4.2 88 +5 +5 1019.9 1004.5
В 1 20 км ясно +4.6 +3.8 95 +3 +3 1019.9 1004.5 +14.4
В 1 20 км 1/0
[Ac trans]
+3.8 +3.0 95 +2 +2 1020.7 1005.2
В 1 20 км 1/0
[Ac trans]
+3.4 +2.8 96 +2 +2 1021.2 1005.7
Местоположение метеостанции Чуприя (Сербия): широта 43.93 долгота 21.38 высота над уровнем моря 125 м.
В архиве по умолчанию представлена погода в Чуприи за последнюю неделю. Архивные данные за месяц целиком и за предыдущие месяцы, начиная с января 2011 года, Вы можете получить, выбрав интересующий диапазон дат из раскрывающегося списка и нажав кнопку "Найти!".
*Определитесь, кто Вы:
Внимание! Время в таблицах - всемирное. Для получения местного времени необходимо прибавить поправку, которая равна 1 ч.
Смотрите также архив погоды в соседних городах и на ближайших метеорологических станциях:
Партнеры нашего сайта:      
Пояснения к столбцам:
  • Ветер - указаны скорость ветра в м/с - средняя за 10 мин, порывы в срок и между сроками (в фигурных скобках) и направление, откуда дует ветер: С - северный,
  • СВ - северо-восточный, В - восточный, ЮВ - юго-восточный, Ю - южный, ЮЗ - юго-западный, З - западный, СЗ - северо-западный.
  • Видимость - горизонтальная дальность видимости в метрах или километрах. При видимости от 1 до 10 км при отсутствии осадков обычно наблюдается дымка, при ухудшении видимости до 1 км и менее - туман. В сухую погоду видимость может ухудшаться дымом, пылью или мглою.
  • Явления - указаны атмосферные явления, наблюдавшиеся в срок или в последний час перед сроком; фигурными скобками обозначены явления, наблюдавшиеся между сроками (за 1-3 часа до срока); квадратными скобками обозначены град или гололедные отложения с указанием их диаметра в мм.
  • Облачность - указаны через наклонную черту общая и нижняя облачность в баллах и высота нижней границы облаков в метрах; квадратными скобками обозначены формы облаков: Ci - перистые, Cs - перисто-слоистые, Cc - перисто-кучевые, Ac - высококучевые, As - высокослоистые, Sc - слоисто-кучевые, Ns - слоисто-дождевые, Cu - кучевые, Cb - кучево-дождевые. Подробнее классификацию облаков см. в Атласе облаков (PDF).
  • T - Температура воздуха - температура, измеренная на высоте 2 м над землей.
  • Td - Температура точки росы - температура, при понижении до которой содержащийся в воздухе водяной пар достигнет насыщения.
  • f - Относительная влажность воздуха - влажноcть воздуха, измеренная на высоте 2 м над землей.
  • Te - Эффективная температура - температура, которую ощущает одетый по сезону человек в тени. Характеристика душности погоды. При расчете учитывается влияние влажности воздуха и скорости ветра на теплоощущения человека.
  • Tes - Эффективная температура на солнце - температура, которую ощущает человек, с поправкой на солнечный нагрев. Характеристика знойности погоды. Зависит от высоты солнца над горизонтом, облачности и скорости ветра. Ночью, в пасмурную погоду, а также при ветре 12 м/с и более поправка равна нулю.
  • P - Атмосферное давление - приведенное к уровню моря атмосферное давление.
  • Po - Атмосферное давление - измеренное на уровне метеостанции атмосферное давление.
  • Tmin - Минимальная температура - минимум температуры воздуха на высоте 2 м над землей.
  • Tmax - Максимальная температура - максимум температуры воздуха на высоте 2 м над землей.
  • R - Количество осадков - Количество выпавших осадков за период времени, мм. При наведении курсора мыши на число - период времени, за который выпало указанное количество осадков.
  • R24 - Количество осадков - Количество выпавших осадков за 24 часа, мм.
  • S - Снежный покров - Высота снежного покрова, см. При наведении курсора мыши на число - состояние снежного покрова и степень покрытия местности в баллах.